Powrót do katalogu

NOAA 17 DEB

AktywnySSO
NORAD 48738·DEBRIS·🇺🇸 United States

Wystrzelony Jun 24, 2002 z Vandenberg Space Force Base

Loading…

Następne Przeloty (najbliższe 24 godziny)

TLE

ŚwieżeSource: Space-Track

Epoka: Sep 14, 2026, 05:28 UTC

1 48738U 02032BX  26257.22781695  .00001685  00000-0  76372-3 0  9997
2 48738  98.7281 175.5709 0090002 191.7455 168.1624 14.21123037282233

Śledź NOAA 17 DEB w czasie rzeczywistym z AllMySat

Download on the App Store